TimeCDT,TemperatureF,Dew PointF,Humidity,Sea Level PressureIn,VisibilityMPH,Wind Direction,Wind SpeedMPH,Gust SpeedMPH,PrecipitationIn,Events,Conditions,WindDirDegrees,DateUTC
12:15 AM,-2.2,-7.6,78,30.39,10.0,Calm,Calm,-,N/A,,Clear,0,2013-03-20 05:15:00
12:35 AM,-4.0,-9.4,78,30.39,10.0,SW,4.6,-,N/A,,Clear,220,2013-03-20 05:35:00
12:55 AM,-2.2,-7.6,78,30.40,10.0,SSW,5.8,-,N/A,,Partly Cloudy,210,2013-03-20 05:55:00
1:15 AM,-0.4,-7.6,72,30.39,10.0,SSW,3.5,-,N/A,,Mostly Cloudy,200,2013-03-20 06:15:00
1:35 AM,-2.2,-7.6,78,30.39,10.0,SW,4.6,-,N/A,,Mostly Cloudy,230,2013-03-20 06:35:00
1:55 AM,-2.2,-7.6,78,30.38,10.0,SSW,3.5,-,N/A,,Partly Cloudy,200,2013-03-20 06:55:00
2:15 AM,-2.2,-9.4,71,30.38,10.0,Calm,Calm,-,N/A,,Clear,0,2013-03-20 07:15:00
2:35 AM,-2.2,-9.4,71,30.38,10.0,South,4.6,-,N/A,,Clear,170,2013-03-20 07:35:00
2:55 AM,-2.2,-9.4,71,30.39,10.0,West,4.6,-,N/A,,Partly Cloudy,260,2013-03-20 07:55:00
3:15 AM,-4.0,-9.4,78,30.37,10.0,Calm,Calm,-,N/A,,Partly Cloudy,0,2013-03-20 08:15:00
3:35 AM,-5.8,-11.2,77,30.37,10.0,Calm,Calm,-,N/A,,Scattered Clouds,0,2013-03-20 08:35:00
3:55 AM,-4.0,-9.4,78,30.37,10.0,WSW,4.6,-,N/A,,Partly Cloudy,250,2013-03-20 08:55:00
4:15 AM,-2.2,-9.4,71,30.36,10.0,Calm,Calm,-,N/A,,Partly Cloudy,0,2013-03-20 09:15:00
4:35 AM,-4.0,-11.2,71,30.36,10.0,WSW,3.5,-,N/A,,Partly Cloudy,250,2013-03-20 09:35:00
4:55 AM,-4.0,-11.2,71,30.37,10.0,WSW,3.5,-,N/A,,Clear,250,2013-03-20 09:55:00
5:15 AM,-4.0,-9.4,78,30.36,10.0,West,4.6,-,N/A,,Clear,270,2013-03-20 10:15:00
5:35 AM,-4.0,-9.4,78,30.35,10.0,SW,3.5,-,N/A,,Mostly Cloudy,220,2013-03-20 10:35:00
5:55 AM,-4.0,-11.2,71,30.34,10.0,SSW,3.5,-,N/A,,Mostly Cloudy,200,2013-03-20 10:55:00
6:15 AM,-5.8,-11.2,77,30.34,10.0,Calm,Calm,-,N/A,,Partly Cloudy,0,2013-03-20 11:15:00
6:35 AM,-7.6,-13.0,77,30.34,10.0,Calm,Calm,-,N/A,,Scattered Clouds,0,2013-03-20 11:35:00
6:55 AM,-7.6,-13.0,77,30.33,10.0,Calm,Calm,-,N/A,,Partly Cloudy,0,2013-03-20 11:55:00
7:15 AM,-7.6,-13.0,77,30.33,10.0,Calm,Calm,-,N/A,,Clear,0,2013-03-20 12:15:00
7:35 AM,-5.8,-11.2,77,30.33,10.0,Calm,Calm,-,N/A,,Clear,0,2013-03-20 12:35:00
7:55 AM,-7.6,-14.8,71,30.32,10.0,Calm,Calm,-,N/A,,Clear,0,2013-03-20 12:55:00
8:15 AM,-5.8,-13.0,71,30.32,9.0,Calm,Calm,-,N/A,,Clear,0,2013-03-20 13:15:00
8:35 AM,-4.0,-9.4,78,30.32,10.0,Calm,Calm,-,N/A,,Clear,0,2013-03-20 13:35:00
8:55 AM,-0.4,-7.6,72,30.30,10.0,Calm,Calm,-,N/A,,Clear,0,2013-03-20 13:55:00
9:15 AM,-0.4,-5.8,78,30.30,10.0,NE,4.6,-,N/A,,Clear,50,2013-03-20 14:15:00
9:35 AM,5.0,-2.2,72,30.31,10.0,Calm,Calm,-,N/A,,Clear,0,2013-03-20 14:35:00
9:55 AM,3.2,-2.2,78,30.30,10.0,Calm,Calm,-,N/A,,Clear,0,2013-03-20 14:55:00
10:15 AM,6.8,-0.4,72,30.29,10.0,NE,3.5,-,N/A,,Clear,50,2013-03-20 15:15:00
10:35 AM,8.6,1.4,73,30.28,10.0,NE,6.9,-,N/A,,Clear,50,2013-03-20 15:35:00
10:55 AM,12.2,5.0,73,30.27,10.0,ENE,5.8,-,N/A,,Clear,60,2013-03-20 15:55:00
11:15 AM,15.8,3.2,58,30.27,10.0,ESE,6.9,-,N/A,,Clear,120,2013-03-20 16:15:00
11:35 AM,17.6,5.0,58,30.26,10.0,ESE,8.1,-,N/A,,Clear,110,2013-03-20 16:35:00
11:55 AM,17.6,6.8,63,30.26,10.0,ESE,9.2,-,N/A,,Clear,120,2013-03-20 16:55:00
12:15 PM,19.4,6.8,58,30.25,10.0,ESE,9.2,-,N/A,,Clear,120,2013-03-20 17:15:00
12:35 PM,19.4,6.8,58,30.24,10.0,ESE,10.4,-,N/A,,Clear,120,2013-03-20 17:35:00
12:55 PM,19.4,6.8,58,30.23,10.0,SE,11.5,-,N/A,,Clear,130,2013-03-20 17:55:00
1:15 PM,21.2,6.8,54,30.22,10.0,ESE,11.5,-,N/A,,Clear,110,2013-03-20 18:15:00
1:35 PM,23.0,6.8,50,30.20,10.0,ESE,11.5,-,N/A,,Clear,110,2013-03-20 18:35:00
1:55 PM,23.0,8.6,54,30.20,10.0,SE,9.2,-,N/A,,Clear,130,2013-03-20 18:55:00
2:15 PM,23.0,10.4,59,30.19,10.0,ESE,11.5,-,N/A,,Clear,120,2013-03-20 19:15:00
2:35 PM,23.0,10.4,59,30.18,10.0,ESE,10.4,-,N/A,,Clear,110,2013-03-20 19:35:00
2:55 PM,24.8,10.4,54,30.17,10.0,ESE,12.7,-,N/A,,Clear,120,2013-03-20 19:55:00
3:15 PM,24.8,12.2,59,30.16,10.0,ESE,12.7,17.3,N/A,,Clear,120,2013-03-20 20:15:00
3:35 PM,24.8,14.0,64,30.14,10.0,SE,12.7,-,N/A,,Clear,130,2013-03-20 20:35:00
3:55 PM,26.6,14.0,59,30.13,10.0,ESE,15.0,18.4,N/A,,Clear,110,2013-03-20 20:55:00
4:15 PM,26.6,14.0,59,30.12,10.0,ESE,11.5,-,N/A,,Clear,110,2013-03-20 21:15:00
4:35 PM,26.6,14.0,59,30.12,10.0,ESE,12.7,18.4,N/A,,Clear,110,2013-03-20 21:35:00
4:55 PM,26.6,14.0,59,30.11,10.0,East,10.4,-,N/A,,Clear,100,2013-03-20 21:55:00
5:15 PM,26.6,12.2,55,30.11,10.0,ESE,13.8,-,N/A,,Clear,110,2013-03-20 22:15:00
5:35 PM,24.8,10.4,54,30.10,10.0,East,12.7,16.1,N/A,,Clear,100,2013-03-20 22:35:00
5:55 PM,26.6,12.2,55,30.09,10.0,East,12.7,17.3,N/A,,Clear,100,2013-03-20 22:55:00
6:15 PM,24.8,10.4,54,30.10,10.0,ESE,12.7,18.4,N/A,,Clear,110,2013-03-20 23:15:00
6:35 PM,24.8,10.4,54,30.10,10.0,East,10.4,-,N/A,,Clear,100,2013-03-20 23:35:00
6:55 PM,23.0,10.4,59,30.09,10.0,East,13.8,-,N/A,,Clear,100,2013-03-20 23:55:00
7:15 PM,21.2,10.4,63,30.08,10.0,East,12.7,17.3,N/A,,Clear,100,2013-03-21 00:15:00
7:35 PM,19.4,8.6,63,30.08,10.0,East,10.4,-,N/A,,Clear,100,2013-03-21 00:35:00
7:55 PM,19.4,8.6,63,30.08,10.0,East,9.2,-,N/A,,Clear,90,2013-03-21 00:55:00
8:15 PM,17.6,8.6,68,30.07,10.0,East,10.4,16.1,N/A,,Clear,90,2013-03-21 01:15:00
8:35 PM,17.6,6.8,63,30.07,10.0,East,12.7,-,N/A,,Clear,90,2013-03-21 01:35:00
8:55 PM,15.8,6.8,68,30.07,10.0,East,8.1,-,N/A,,Clear,90,2013-03-21 01:55:00
9:15 PM,15.8,6.8,68,30.06,10.0,East,10.4,-,N/A,,Clear,90,2013-03-21 02:15:00
9:35 PM,14.0,5.0,67,30.06,10.0,East,10.4,-,N/A,,Clear,100,2013-03-21 02:35:00
9:55 PM,14.0,5.0,67,30.06,10.0,East,9.2,-,N/A,,Partly Cloudy,90,2013-03-21 02:55:00
10:15 PM,14.0,5.0,67,30.06,10.0,East,10.4,16.1,N/A,,Partly Cloudy,90,2013-03-21 03:15:00
10:35 PM,12.2,5.0,73,30.06,10.0,East,6.9,-,N/A,,Clear,90,2013-03-21 03:35:00
10:55 PM,12.2,5.0,73,30.05,10.0,East,9.2,-,N/A,,Clear,90,2013-03-21 03:55:00
11:15 PM,12.2,5.0,73,30.05,10.0,East,6.9,-,N/A,,Scattered Clouds,80,2013-03-21 04:15:00
11:35 PM,12.2,3.2,67,30.04,10.0,East,8.1,-,N/A,,Overcast,90,2013-03-21 04:35:00
11:55 PM,12.2,3.2,67,30.04,10.0,ESE,6.9,-,N/A,,Mostly Cloudy,110,2013-03-21 04:55:00